Weather History for Roxboro, NC

Change the Weather History Date:

Tuesday, October 22, 2013

  Actual Average Record
Temperature  
Mean Temperature 58 °F -  
Max Temperature 68 °F 67 °F 87 °F (2001)
Min Temperature 48 °F 41 °F 22 °F (1974)
Degree Days  
Heating Degree Days 7    
Growing Degree Days 8 (Base 50)    
Moisture  
Dew Point 52 °F    
Average Humidity 86    
Maximum Humidity 100    
Minimum Humidity 46    
Precipitation  
Precipitation 0.00 in - - ()
Sea Level Pressure  
Sea Level Pressure 29.93 in    
Wind  
Wind Speed 1 mph (SW)    
Max Wind Speed 7 mph    
Max Gust Speed -    
Visibility 9 miles    
Events Fog    
Averages and records for this station are not official NWS values.
T = Trace of Precipitation, MM = Missing Value Source: NWS Daily Summary

Daily Weather History Graph

Daily Weather History Graph

Search for Another Location

Airport:

Trip Planner

Search our weather history database for the weather conditions in past years. The results will help you decide how hot, cold, wet, or windy it might be!

Date:

Astronomy

Oct. 22, 2013 Rise Set
Actual Time 7:29 AM EDT 6:30 PM EDT
Civil Twilight 7:03 AM EDT 6:56 PM EDT
Nautical Twilight 6:33 AM EDT 7:26 PM EDT
Astronomical Twilight 6:03 AM EDT 7:56 PM EDT
Moon 9:14 PM EDT 10:51 AM EDT
Length of Visible Light 11h 53m
Length of Day
11h 01m
Waning Gibbous, 87% of the Moon is Illuminated
Oct 22
Waning Gibbous
Oct 26
Last Quarter
Nov 3
New
Nov 10
First Quarter
Nov 17
Full

Hourly Weather History & Observations

Time (EDT) Temp. Dew Point Humidity Pressure Visibility Wind Dir Wind Speed Gust Speed Precip Events Conditions
12:15 AM 48.2 °F 48.2 °F 100% 30.02 in 10.0 mi Calm Calm - N/A   Clear
12:35 AM 48.2 °F 48.2 °F 100% 30.02 in 10.0 mi Calm Calm - N/A   Clear
12:55 AM 48.2 °F 48.2 °F 100% 30.02 in 10.0 mi Calm Calm - N/A   Clear
1:15 AM 48.2 °F 48.2 °F 100% 30.01 in 10.0 mi Calm Calm - N/A   Clear
1:35 AM 48.2 °F 48.2 °F 100% 30.02 in 10.0 mi Calm Calm - N/A   Clear
1:55 AM 48.2 °F 48.2 °F 100% 30.01 in 10.0 mi Calm Calm - N/A   Clear
2:15 AM 48.2 °F 48.2 °F 100% 30.02 in 10.0 mi Calm Calm - N/A   Clear
2:35 AM 48.2 °F 48.2 °F 100% 30.02 in 10.0 mi Calm Calm - N/A   Clear
2:55 AM 50.0 °F 50.0 °F 100% 30.01 in 10.0 mi Calm Calm - N/A   Clear
3:15 AM 48.2 °F 48.2 °F 100% 30.00 in 10.0 mi Calm Calm - N/A   Clear
3:35 AM 48.2 °F 48.2 °F 100% 30.00 in 10.0 mi Calm Calm - N/A   Clear
3:55 AM 50.0 °F 50.0 °F 100% 30.00 in 10.0 mi Calm Calm - N/A   Clear
4:15 AM 50.0 °F 50.0 °F 100% 30.00 in 10.0 mi Calm Calm - N/A   Clear
4:35 AM 50.0 °F 50.0 °F 100% 30.00 in 10.0 mi Calm Calm - N/A   Scattered Clouds
4:55 AM 51.8 °F 50.0 °F 94% 29.99 in 10.0 mi Calm Calm - N/A   Clear
5:15 AM 50.0 °F 50.0 °F 100% 29.99 in 10.0 mi Calm Calm - N/A   Clear
5:35 AM 51.8 °F 50.0 °F 94% 29.98 in 10.0 mi Calm Calm - N/A   Clear
5:55 AM 50.0 °F 50.0 °F 100% 29.98 in 10.0 mi Calm Calm - N/A   Clear
6:15 AM 51.8 °F 51.8 °F 100% 29.97 in 10.0 mi Calm Calm - N/A   Clear
6:35 AM 51.8 °F 51.8 °F 100% 29.97 in 10.0 mi Calm Calm - N/A   Clear
6:55 AM 51.8 °F 51.8 °F 100% 29.97 in 10.0 mi Calm Calm - N/A   Clear
7:15 AM 51.8 °F 51.8 °F 100% 29.96 in 10.0 mi Calm Calm - N/A   Mostly Cloudy
7:35 AM 51.8 °F 51.8 °F 100% 29.96 in 10.0 mi Calm Calm - N/A   Mostly Cloudy
7:55 AM 51.8 °F 51.8 °F 100% 29.96 in 10.0 mi Calm Calm - N/A   Mostly Cloudy
8:15 AM 51.8 °F 51.8 °F 100% 29.96 in 10.0 mi Calm Calm - N/A   Mostly Cloudy
8:35 AM 51.8 °F 51.8 °F 100% 29.96 in 10.0 mi Calm Calm - N/A   Overcast
8:55 AM 53.6 °F 53.6 °F 100% 29.96 in 10.0 mi Calm Calm - N/A   Mostly Cloudy
9:15 AM 53.6 °F 53.6 °F 100% 29.97 in 10.0 mi SSW 3.5 mph - N/A   Scattered Clouds
9:35 AM 55.4 °F 53.6 °F 94% 29.98 in 10.0 mi SW 3.5 mph - N/A   Mostly Cloudy
9:55 AM 55.4 °F 53.6 °F 94% 29.97 in 10.0 mi Calm Calm - N/A   Overcast
10:15 AM 55.4 °F 53.6 °F 94% 29.97 in 10.0 mi SW 3.5 mph - N/A   Overcast
10:35 AM 57.2 °F 53.6 °F 88% 29.97 in 10.0 mi SW 3.5 mph - N/A   Overcast
10:55 AM 59.0 °F 53.6 °F 82% 29.96 in 10.0 mi SW 3.5 mph - N/A   Scattered Clouds
11:15 AM 59.0 °F 53.6 °F 82% 29.95 in 10.0 mi SW 3.5 mph - N/A   Scattered Clouds
11:35 AM 60.8 °F 53.6 °F 77% 29.95 in 10.0 mi SW 4.6 mph - N/A   Scattered Clouds
11:55 AM 60.8 °F 53.6 °F 77% 29.95 in 10.0 mi SW 5.8 mph - N/A   Scattered Clouds
12:15 PM 62.6 °F 53.6 °F 72% 29.94 in 10.0 mi SW 5.8 mph - N/A   Scattered Clouds
12:35 PM 62.6 °F 53.6 °F 72% 29.93 in 10.0 mi West 3.5 mph - N/A   Scattered Clouds
12:55 PM 66.2 °F 53.6 °F 64% 29.92 in 10.0 mi Calm Calm - N/A   Clear
1:15 PM 68.0 °F 51.8 °F 56% 29.91 in 10.0 mi Calm Calm - N/A   Clear
1:35 PM 68.0 °F 50.0 °F 52% 29.90 in 10.0 mi Calm Calm - N/A   Clear
1:55 PM 68.0 °F 50.0 °F 52% 29.90 in 10.0 mi West 3.5 mph - N/A   Clear
2:15 PM 68.0 °F 46.4 °F 46% 29.89 in 10.0 mi West 3.5 mph - N/A   Clear
2:35 PM 66.2 °F 48.2 °F 52% 29.89 in 10.0 mi Calm Calm - N/A   Scattered Clouds
2:55 PM 66.2 °F 48.2 °F 52% 29.88 in 10.0 mi WSW 3.5 mph - N/A   Scattered Clouds
3:15 PM 66.2 °F 48.2 °F 52% 29.87 in 10.0 mi Calm Calm - N/A   Scattered Clouds
3:35 PM 66.2 °F 50.0 °F 56% 29.88 in 10.0 mi Calm Calm - N/A   Mostly Cloudy
3:55 PM 64.4 °F 50.0 °F 59% 29.88 in 10.0 mi SW 6.9 mph - N/A   Scattered Clouds
4:15 PM 66.2 °F 50.0 °F 56% 29.88 in 10.0 mi SW 5.8 mph - N/A   Mostly Cloudy
4:35 PM 66.2 °F 50.0 °F 56% 29.87 in 10.0 mi SSW 6.9 mph - N/A   Scattered Clouds
4:55 PM 64.4 °F 50.0 °F 59% 29.87 in 10.0 mi SSW 4.6 mph - N/A   Mostly Cloudy
5:15 PM 64.4 °F 51.8 °F 64% 29.87 in 10.0 mi South 3.5 mph - N/A   Mostly Cloudy
5:35 PM 64.4 °F 51.8 °F 64% 29.87 in 10.0 mi SSW 5.8 mph - N/A   Mostly Cloudy
5:55 PM 62.6 °F 53.6 °F 72% 29.87 in 10.0 mi South 5.8 mph - N/A   Mostly Cloudy
6:15 PM 62.6 °F 55.4 °F 77% 29.87 in 10.0 mi SSW 4.6 mph - N/A   Mostly Cloudy
6:35 PM 62.6 °F 55.4 °F 77% 29.87 in 10.0 mi Calm Calm - N/A   Mostly Cloudy
6:55 PM 60.8 °F 55.4 °F 82% 29.87 in 10.0 mi Calm Calm - N/A   Mostly Cloudy
7:15 PM 60.8 °F 57.2 °F 88% 29.87 in 10.0 mi SSW 3.5 mph - N/A   Overcast
7:35 PM 60.8 °F 57.2 °F 88% 29.87 in 10.0 mi South 3.5 mph - N/A   Mostly Cloudy
7:55 PM 60.8 °F 57.2 °F 88% 29.87 in 10.0 mi SSW 3.5 mph - N/A   Scattered Clouds
8:15 PM 59.0 °F 57.2 °F 94% 29.87 in 10.0 mi South 3.5 mph - N/A   Mostly Cloudy
8:35 PM 59.0 °F 57.2 °F 94% 29.87 in 10.0 mi Calm Calm - N/A   Overcast
8:55 PM 59.0 °F 57.2 °F 94% 29.87 in 10.0 mi Calm Calm - N/A   Mostly Cloudy
9:15 PM 55.4 °F 55.4 °F 100% 29.87 in 7.0 mi Calm Calm - N/A   Mostly Cloudy
9:35 PM 57.2 °F 57.2 °F 100% 29.87 in 7.0 mi South 5.8 mph - N/A   Mostly Cloudy
9:55 PM 57.2 °F 57.2 °F 100% 29.87 in 7.0 mi Calm Calm - N/A   Mostly Cloudy
10:35 PM 55.4 °F 55.4 °F 100% 29.85 in 4.0 mi Calm Calm - N/A   Mostly Cloudy
11:15 PM 53.6 °F 53.6 °F 100% 29.84 in 2.0 mi Calm Calm - N/A   Overcast
11:35 PM 53.6 °F 53.6 °F 100% 29.84 in 2.5 mi Calm Calm - N/A   Mostly Cloudy
11:55 PM 53.6 °F 53.6 °F 100% 29.82 in 0.5 mi Calm Calm - N/A Fog Fog